DAL1237 KFSD-KATL

Flight info

Callsign DAL1237
Flight time N/A
Altitude 39000
Route FOD JORDY COLIE ENL HITMN NEWBB IHAVE MTHEW CHPPR1
Aircraft A319/M-SDE3FGHIRWY/LB1

Departure

Time 2026-05-04 03:50
Airport Sioux Falls Regional Airport (KFSD)

Arrival

Time N/A
Airport Hartsfield Jackson Atlanta International Airport (KATL)
Time Latitude Longitude Altitude Speed Heading
2026-05-04 03:39 43.58013 -96.73372 1431 ft 0 kts 47°
2026-05-04 03:41 43.58012 -96.73372 1431 ft 1 kts 47°
2026-05-04 03:41 43.57995 -96.73392 1431 ft 4 kts 13°
2026-05-04 03:41 43.57973 -96.73387 1431 ft 4 kts 316°
2026-05-04 03:41 43.57956 -96.73359 1431 ft 4 kts 300°
2026-05-04 03:42 43.57952 -96.73348 1431 ft 0 kts 300°
2026-05-04 03:44 43.57957 -96.73361 1431 ft 5 kts 301°
2026-05-04 03:44 43.57988 -96.73430 1431 ft 11 kts 301°
2026-05-04 03:44 43.58025 -96.73521 1431 ft 11 kts 292°
2026-05-04 03:45 43.58041 -96.73619 1432 ft 11 kts 310°
2026-05-04 03:45 43.58108 -96.73667 1432 ft 12 kts 334°
2026-05-04 03:45 43.58197 -96.73725 1432 ft 15 kts 335°
2026-05-04 03:45 43.58295 -96.73789 1432 ft 16 kts 335°
2026-05-04 03:46 43.58397 -96.73853 1431 ft 16 kts 335°
2026-05-04 03:46 43.58481 -96.73889 1431 ft 12 kts
2026-05-04 03:46 43.58551 -96.73831 1431 ft 13 kts 35°
2026-05-04 03:46 43.58638 -96.73749 1431 ft 17 kts 34°
2026-05-04 03:47 43.58735 -96.73657 1431 ft 17 kts 34°
2026-05-04 03:47 43.58834 -96.73562 1431 ft 17 kts 34°
2026-05-04 03:47 43.58934 -96.73466 1431 ft 18 kts 35°
2026-05-04 03:47 43.59035 -96.73369 1431 ft 18 kts 35°
2026-05-04 03:48 43.59135 -96.73276 1431 ft 13 kts 29°
2026-05-04 03:48 43.59203 -96.73304 1431 ft 11 kts 308°
2026-05-04 03:48 43.59245 -96.73396 1431 ft 12 kts 302°
2026-05-04 03:48 43.59224 -96.73493 1431 ft 12 kts 217°
2026-05-04 03:49 43.59138 -96.73575 1429 ft 24 kts 216°
2026-05-04 03:49 43.58779 -96.73917 1430 ft 99 kts 214°
2026-05-04 03:49 43.58038 -96.74627 1437 ft 156 kts 214°
2026-05-04 03:49 43.57118 -96.75489 1939 ft 163 kts 216°
2026-05-04 03:50 43.56172 -96.76351 2654 ft 166 kts 210°
2026-05-04 03:50 43.54974 -96.76501 3145 ft 191 kts 171°
2026-05-04 03:50 43.53777 -96.75339 3287 ft 239 kts 128°
2026-05-04 03:50 43.52960 -96.73161 3632 ft 270 kts 119°
2026-05-04 03:51 43.52090 -96.70770 4331 ft 284 kts 119°
2026-05-04 03:51 43.51195 -96.68311 5237 ft 290 kts 119°
2026-05-04 03:51 43.50284 -96.65799 6174 ft 295 kts 118°
2026-05-04 03:51 43.49359 -96.63241 7038 ft 301 kts 118°
2026-05-04 03:52 43.48416 -96.60637 7913 ft 307 kts 117°
2026-05-04 03:52 43.47453 -96.57982 8772 ft 313 kts 116°
2026-05-04 03:52 43.46469 -96.55270 9644 ft 319 kts 116°
2026-05-04 03:52 43.45465 -96.52500 10308 ft 332 kts 116°
2026-05-04 03:53 43.44396 -96.49557 10612 ft 355 kts 116°
2026-05-04 03:53 43.43267 -96.46453 11192 ft 367 kts 116°
2026-05-04 03:53 43.42117 -96.43301 12013 ft 370 kts 117°
2026-05-04 03:53 43.40969 -96.40167 12835 ft 374 kts 117°
2026-05-04 03:54 43.39797 -96.36957 13643 ft 377 kts 117°
2026-05-04 03:54 43.38614 -96.33718 14352 ft 381 kts 117°
2026-05-04 03:54 43.37419 -96.30449 15060 ft 384 kts 117°
2026-05-04 03:54 43.36214 -96.27162 15777 ft 387 kts 117°
2026-05-04 03:55 43.34998 -96.23850 16493 ft 390 kts 117°
2026-05-04 03:55 43.33775 -96.20515 17204 ft 393 kts 117°
2026-05-04 03:55 43.32539 -96.17157 17905 ft 396 kts 117°
2026-05-04 03:55 43.31290 -96.13773 18537 ft 399 kts 117°
2026-05-04 03:56 43.30032 -96.10364 19147 ft 402 kts 117°
2026-05-04 03:56 43.28764 -96.06930 19777 ft 404 kts 116°
2026-05-04 03:56 43.27490 -96.03478 20387 ft 407 kts 116°
2026-05-04 03:56 43.26205 -96.00005 21006 ft 409 kts 116°
2026-05-04 03:57 43.24911 -95.96516 21625 ft 412 kts 116°
2026-05-04 03:57 43.23608 -95.93003 22240 ft 414 kts 116°
2026-05-04 03:57 43.22297 -95.89472 22836 ft 417 kts 116°
2026-05-04 03:57 43.20978 -95.85917 23402 ft 420 kts 116°
2026-05-04 03:58 43.18307 -95.78741 24328 ft 425 kts 116°
2026-05-04 03:58 43.16956 -95.75120 24770 ft 428 kts 115°
2026-05-04 03:58 43.15594 -95.71482 25206 ft 431 kts 115°
2026-05-04 03:59 43.14222 -95.67819 25654 ft 434 kts 116°
2026-05-04 03:59 43.12840 -95.64135 26089 ft 436 kts 116°
2026-05-04 03:59 43.11467 -95.60479 26515 ft 439 kts 115°
2026-05-04 03:59 43.10065 -95.56752 26938 ft 442 kts 115°
2026-05-04 04:00 43.08650 -95.52998 27357 ft 445 kts 115°
2026-05-04 04:00 43.07229 -95.49227 27797 ft 447 kts 115°
2026-05-04 04:00 43.05798 -95.45434 28208 ft 450 kts 115°
2026-05-04 04:00 43.04355 -95.41618 28617 ft 453 kts 115°
2026-05-04 04:01 43.02905 -95.37782 29021 ft 456 kts 115°
2026-05-04 04:01 43.01444 -95.33925 29395 ft 458 kts 115°
2026-05-04 04:01 42.99974 -95.30050 29792 ft 461 kts 115°
2026-05-04 04:01 42.98491 -95.26154 30114 ft 464 kts 116°
2026-05-04 04:02 42.96994 -95.22233 30407 ft 467 kts 116°
2026-05-04 04:02 42.95488 -95.18287 30694 ft 470 kts 116°
2026-05-04 04:02 42.93975 -95.14314 30978 ft 473 kts 116°
2026-05-04 04:02 42.92454 -95.10318 31256 ft 476 kts 116°
2026-05-04 04:03 42.90941 -95.06349 31563 ft 478 kts 116°
2026-05-04 04:03 42.89406 -95.02332 31960 ft 478 kts 116°
2026-05-04 04:03 42.87866 -94.98318 32344 ft 478 kts 116°
2026-05-04 04:03 42.86322 -94.94304 32739 ft 478 kts 116°
2026-05-04 04:04 42.84775 -94.90287 33110 ft 479 kts 116°
2026-05-04 04:04 42.83226 -94.86271 33482 ft 479 kts 116°
2026-05-04 04:04 42.81671 -94.82250 33862 ft 480 kts 116°
2026-05-04 04:04 42.80114 -94.78225 34190 ft 480 kts 117°
2026-05-04 04:05 42.78554 -94.74204 34519 ft 480 kts 117°
2026-05-04 04:05 42.76992 -94.70184 34844 ft 481 kts 117°
2026-05-04 04:05 42.75429 -94.66159 35163 ft 481 kts 117°
2026-05-04 04:05 42.73869 -94.62130 35467 ft 481 kts 117°
2026-05-04 04:06 42.72310 -94.58106 35772 ft 481 kts 117°
2026-05-04 04:06 42.70749 -94.54085 36051 ft 482 kts 117°
2026-05-04 04:06 42.69180 -94.50056 36316 ft 482 kts 117°